Regional Weather Roundup
Issued by NWS Wilmington, NC

Current Version | Previous Version | Text Only | Print | Product List | Glossary On
Versions: 1 2 3 4 5 6 7 8 9 10 11 12 13 14 15 16 17 18 19 20 21 22 23 24 25 26 27 28 29 30 31 32 33 34 35 36 37 38 39 40 41 42 43 44 45 46 47 48 49 50
000
ASUS42 KILM 210513
RWRILM
RWRILM
REGIONAL HOURLY WEATHER ROUNDUP
NATIONAL WEATHER SERVICE WILMINGTON NC
1200 AM EST TUE NOV 21 2017

NOTE: "FAIR" INDICATES FEW OR NO CLOUDS BELOW 12,000 FEET WITH NO
SIGNIFICANT WEATHER AND/OR OBSTRUCTIONS TO VISIBILITY.

...............WFO WILMINGTON COUNTY WARNING AREA...............

......COASTAL NC AND SC COUNTIES......

CITY           SKY/WX    TMP DP  RH WIND       PRES   REMARKS
WILMINGTON     PTCLDY    38  36  92 CALM      30.27S
N MYRTLE BEACH PTCLDY    39  38  96 CALM      30.25F
MYRTLE BEACH   PTCLDY    40  39  97 CALM      30.26F

......INLAND NC AND SC COUNTIES.......

CITY           SKY/WX    TMP DP  RH WIND       PRES   REMARKS
LUMBERTON      CLOUDY    31  30  96 CALM      30.26S
ELIZABETHTOWN  NOT AVBL
WHITEVILLE     PTCLDY    37  35  92 CALM      30.26S
FLORENCE       PTCLDY    37  32  82 CALM      30.25F
DARLINGTON     CLOUDY    34  30  85 CALM      30.25F
KINGSTREE      FAIR      32  32 100 CALM      30.26R
HARTSVILLE     FAIR      37  30  75 CALM      30.25R
BENNETTSVILLE  FAIR      32  32 100 CALM      30.25F
CONWAY         FAIR      34  34 100 CALM      30.26S
GEORGETOWN     FAIR      36  36 100 CALM      30.26F
MARION         FAIR      32  32 100 CALM      30.27S

....................REST OF NORTH CAROLINA......................

.........EASTERN NC.........

CITY           SKY/WX    TMP DP  RH WIND       PRES   REMARKS
CAPE HATTERAS  CLEAR     38  36  92 NE3       30.27F
JACKSONVILLE   CLOUDY    31  29  92 CALM      30.28S
MOREHEAD CITY  CLOUDY    38  36  92 CALM      30.27F
KENANSVILLE    CLOUDY    30  28  93 CALM      30.27S FOG
NEW BERN       CLOUDY    33  33 100 CALM      30.29S
ELIZABETH CITY CLOUDY    38  36  92 S3        30.28R

.........CENTRAL NC.........

CITY           SKY/WX    TMP DP  RH WIND       PRES   REMARKS
RALEIGH DURHAM CLOUDY    37  31  78 CALM      30.25S
ROCKY MOUNT    CLOUDY    32  32 100 CALM      30.27R
ROANOKE RAPIDS NOT AVBL
FAYETTEVILLE   CLOUDY    36  32  85 CALM      30.25S
HOFFMAN        CLOUDY    30  27  89 CALM      30.25S

.........WESTERN NC.........

CITY           SKY/WX    TMP DP  RH WIND       PRES   REMARKS
CHARLOTTE      CLOUDY    42  29  59 SE3       30.23S
GREENSBORO     CLOUDY    38  26  62 SW7       30.21S WCI  33
HICKORY        NOT AVBL
BOONE          NOT AVBL
ASHEVILLE      NOT AVBL

.....................REST OF SOUTH CAROLINA.....................

.........EASTERN SC.........

CITY           SKY/WX    TMP DP  RH WIND       PRES   REMARKS
CHARLESTON     PTCLDY    44  41  89 NE6       30.22F
BEAUFORT MCAS  CLEAR     51  46  83 NE7       30.21S
HILTON HEAD    CLEAR     54  48  82 NE8       30.20F

.........CENTRAL SC.........

CITY           SKY/WX    TMP DP  RH WIND       PRES   REMARKS
COLUMBIA       PTCLDY    36  33  89 W3        30.24S
ORANGEBURG     PTCLDY    38  35  89 CALM      30.23F
SUMTER SHAW    PTCLDY    36  31  80 CALM      30.22F

.........WESTERN SC.........

CITY           SKY/WX    TMP DP  RH WIND       PRES   REMARKS
GREENVILLE     NOT AVBL
ROCK HILL      CLOUDY    36  30  79 S5        30.23F WCI  32
ANDERSON       PTCLDY    38  34  85 CALM      30.22F
CLEMSON        NOT AVBL
GREENWOOD      PTCLDY    34  32  92 CALM      30.23F


...................COASTAL AND OFFSHORE REPORTS..................

................LOCAL PIERS AND NC RESERVE................


STATION/POSITION TIME  SKY/WX   TEMP    WIND        PRES    VSBY
                                AIR SEA DIR/SP/G
                 (UTC)          (F)     (DEG/KT/KT) (MB)    (MI)
JOHNY MRCER PIER 0448            58 63  150/  6/  7 1024.8S
NC RESRV MASNBRO 0345            45     320/  2     1024.0
OCEAN CREST PIER NOT AVBL
SPRINGMAID  PIER 0448                               1023.6F


................COASTAL AND OFFSHORE BUOYS................


STATION/POSITION TIME  SKY/WX   TEMP    WIND        PRES    VSBY
                                AIR SEA DIR/SP/G
                 (UTC)          (F)     (DEG/KT/KT) (MB)    (MI)
DIMNDSHOAL 41025 0500            59      20/  6/  8 1025.1
CAPE LOOKOUT     0500                   360/  3/  3 1025.0F
ONSLOW BAY 41036 NOT AVBL
ONSLOW BAY 41064 0408            60 67  130/  4/  8 1025.0R
ONSLOW BAY 41159 0500               67                N/A
WVE H/P(F/S)=  2/ 8

MASNBO INL 41110 0459               64                N/A
WVE H/P(F/S)=  1/ 9

WILM HARBR 41108 0500               62                N/A
WVE H/P(F/S)=  1/ 9

27SE WRITB 41037 0408            60 68  140/  6/ 12 1024.2F
FRYING PAN 41013 0500            63     130/  4/  6 1024.0
SUNST NRSH 41024 0408            57 61  150/  6/  8 1024.6R
CAPRS NRSH 41029 0408            58 62   70/ 10/ 16 1023.4F
EDISTO     41004 0500            67      80/ 10/ 14 1022.4


..........OFFSHORE BUOYS BEYOND 100 NM OFFSHORE...........
.....IN A TRIANGLE---HAT TO BERMUDA TO BAHAMAS TO HAT.....


STATION/POSITION TIME  SKY/WX   TEMP    WIND        PRES    VSBY
                                AIR SEA DIR/SP/G
                 (UTC)          (F)     (DEG/KT/KT) (MB)    (MI)
150E HAT   41001 NOT AVBL
W BERMUDA  41048 0500            69      60/ 14/ 19 1024.1
ATLANTIC S 41049 0450            76 79   50/ 16/ 17 1019.2F
WVE H/P(F/S)=  4/ 6 SWL H/P/D(F/S/D)=  2/110/ 7

E BAHAMAS  41046 0500            79      70/ 16/ 19 1015.1
NE BAHAMAS 41047 0450            73 80   70/ 23/ 27 1019.2F
WVE H/P(F/S)=  8/ 6

120E CANVRL41010 NOT AVBL

END



USA.gov is the U.S. government's official web portal to all federal, state and local government web resources and services.